Location: ????????
(55.1591°N, 39.1782°E)
Time: 13:30:01
(UTC+00:00)

Cosmos 1943 Rocket - Pass Details

Date: 14 April 2024
Orbit: 810 x 845 km, 71.0° (Epoch: 23 May)

Event Time Altitude Azimuth Distance (km) Brightness Sun altitude
Rises 01:12:06 0° 324° (NW) 3,404 5.3 -9.8°
Reaches altitude 10° 01:14:39 10° 317° (NW) 2,469 4.5 -9.5°
Maximum altitude 01:19:56 42° 249° (WSW) 1,200 2.6 -8.8°
Drops below altitude 10° 01:25:12 10° 181° (S) 2,462 4.3 -8.2°
Sets 01:27:45 0° 174° (S) 3,393 5.1 -7.9°
